GW0484 Weather Reports


time (UTC)temp
C
wind
direction
speed
KPH
gust
KPH
rain 1hr
cm
rain 24hr
cm
rain mn
cm
humidity
%
barometer
mb
20260902164103 22 187 8.0 9.7 0.00 0.00 0.00 47 1002.2
20260902163559 21 168 4.8 4.8 0.00 0.00 0.00 49 1002.4
20260902163057 21 203 4.8 8.0 0.00 0.00 0.00 50 1002.1
20260902162551 21 165 6.4 8.0 0.00 0.00 0.00 50 1002.2
20260902162046 21 171 4.8 4.8 0.00 0.00 0.00 49 1002.5
20260902161546 22 153 4.8 4.8 0.00 0.00 0.00 50 1002.4
20260902161043 22 177 6.4 8.0 0.00 0.00 0.00 50 1002.3
20260902160538 21 163 6.4 8.0 0.00 0.00 0.00 52 1002.2
20260902160033 21 157 3.2 3.2 0.00 0.00 0.00 52 1002.2
20260902155526 21 154 3.2 4.8 0.00 0.00 0.00 52 1002.5
20260902155025 20 157 4.8 4.8 0.00 0.00 0.00 52 1002.4
20260902154521 20 138 1.6 1.6 0.00 0.00 0.00 55 1002.7
20260902154016 20 224 4.8 4.8 0.00 0.00 0.00 54 1002.4
20260902153514 21 235 8.0 9.7 0.00 0.00 0.00 52 1002.7
20260902153010 21 122 0.0 0.0 0.00 0.00 0.00 53 1002.9
20260902152506 20 114 3.2 3.2 0.00 0.00 0.00 56 1002.8
20260902152001 18 130 0.0 0.0 0.00 0.00 0.00 58 1002.9
20260902151457 18 121 1.6 3.2 0.00 0.00 0.00 59 1003.0
20260902150956 18 132 1.6 1.6 0.00 0.00 0.00 59 1003.2
20260902150452 18 136 3.2 3.2 0.00 0.00 0.00 61 1003.2
20260902145952 17 138 0.0 1.6 0.00 0.00 0.00 60 1003.1
20260902145447 17 135 0.0 1.6 0.00 0.00 0.00 62 1003.1
20260902144942 16 161 1.6 3.2 0.00 0.00 0.00 66 1003.3
20260902144438 15 151 4.8 4.8 0.00 0.00 0.00 72 1003.3
20260902143938 15 148 3.2 3.2 0.00 0.00 0.00 73 1003.3
20260902143433 15 139 1.6 1.6 0.00 0.00 0.00 73 1003.2
20260902142928 14 117 1.6 3.2 0.00 0.00 0.00 74 1003.4
20260902142425 14 124 0.0 0.0 0.00 0.00 0.00 72 1003.6
20260902141920 14 125 0.0 0.0 0.00 0.00 0.00 73 1003.4
20260902141415 13 125 0.0 0.0 0.00 0.00 0.00 71 1003.4
20260902140914 13 125 0.0 0.0 0.00 0.00 0.00 74 1003.5
20260902140410 13 125 0.0 0.0 0.00 0.00 0.00 73 1003.6
20260902135909 13 125 0.0 0.0 0.00 0.00 0.00 73 1003.6
20260902135406 13 125 0.0 0.0 0.00 0.00 0.00 73 1003.9
20260902134904 13 125 0.0 0.0 0.00 0.00 0.00 74 1003.4
20260902134400 13 125 0.0 0.0 0.00 0.00 0.00 73 1003.6
20260902133855 13 123 0.0 0.0 0.00 0.00 0.00 73 1003.6
20260902133355 13 125 0.0 0.0 0.00 0.00 0.00 72 1003.5
20260902132850 13 125 0.0 0.0 0.00 0.00 0.00 72 1003.5
20260902132345 13 125 0.0 0.0 0.00 0.00 0.00 72 1003.4
20260902131840 13 124 0.0 0.0 0.00 0.00 0.00 74 1003.5
20260902131337 12 124 0.0 0.0 0.00 0.00 0.00 73 1003.3
20260902130836 12 123 0.0 0.0 0.00 0.00 0.00 76 1003.3
20260902130332 12 127 0.0 0.0 0.00 0.00 0.00 78 1003.1
20260902125827 12 118 0.0 1.6 0.00 0.00 0.00 78 1003.3
20260902125323 12 121 0.0 0.0 0.00 0.00 0.00 76 1003.3
20260902124819 12 117 1.6 1.6 0.00 0.00 0.00 77 1003.4
20260902124315 11 138 1.6 1.6 0.00 0.00 0.00 76 1003.5
20260902123809 11 124 0.0 0.0 0.00 0.00 0.00 76 1003.4
20260902123306 12 139 0.0 0.0 0.00 0.00 0.00 77 1003.4
20260902122804 12 151 1.6 1.6 0.00 0.00 0.00 77 1003.5
20260902122300 11 139 0.0 0.0 0.00 0.00 0.00 77 1003.3
20260902121754 12 123 0.0 1.6 0.00 0.00 0.00 76 1003.2
20260902121250 12 105 3.2 3.2 0.00 0.00 0.00 77 1002.9
20260902120745 12 131 0.0 0.0 0.00 0.00 0.00 77 1002.8
20260902120241 12 89 3.2 3.2 0.00 0.00 0.00 77 1002.8
20260902115736 12 116 0.0 0.0 0.00 0.00 0.00 77 1002.9
20260902115232 12 114 0.0 0.0 0.00 0.00 0.00 77 1002.8
20260902114728 12 129 0.0 0.0 0.00 0.00 0.00 77 1003.0
20260902114223 12 138 0.0 1.6 0.00 0.00 0.00 76 1003.3
20260902113718 12 101 3.2 4.8 0.00 0.00 0.00 75 1003.3
20260902113213 13 127 0.0 0.0 0.00 0.00 0.00 73 1003.3
20260902112713 13 289 4.8 4.8 0.00 0.00 0.00 70 1003.4
20260902112210 13 205 8.0 9.7 0.00 0.00 0.00 72 1003.6
20260902111705 13 262 8.0 9.7 0.00 0.00 0.00 74 1003.6
20260902111201 13 252 6.4 8.0 0.00 0.00 0.00 75 1003.6
20260902110656 13 241 6.4 8.0 0.00 0.00 0.00 75 1003.5
20260902110153 12 233 6.4 8.0 0.00 0.00 0.00 74 1003.6
20260902105652 13 243 8.0 9.7 0.00 0.00 0.00 73 1003.5
20260902105148 12 233 6.4 8.0 0.00 0.00 0.00 74 1003.7
20260902104643 12 247 6.4 9.7 0.00 0.00 0.00 74 1003.7
20260902104138 13 213 6.4 8.0 0.00 0.00 0.00 73 1003.7
20260902103637 13 219 8.0 11.3 0.00 0.00 0.00 72 1003.7
20260902103133 13 226 4.8 8.0 0.00 0.00 0.00 70 1004.0
20260902102629 13 239 8.0 11.3 0.00 0.00 0.00 71 1003.7
20260902102126 13 237 12.9 17.7 0.00 0.00 0.00 72 1003.6
20260902101621 12 208 8.0 9.7 0.00 0.00 0.00 74 1003.7
20260902101120 12 202 4.8 8.0 0.00 0.00 0.00 73 1003.6
20260902100615 11 160 3.2 3.2 0.00 0.00 0.00 72 1003.5
20260902100110 12 147 1.6 1.6 0.00 0.00 0.00 69 1003.4
20260902095609 12 149 1.6 3.2 0.00 0.00 0.00 68 1003.4
20260902095108 12 166 3.2 4.8 0.00 0.00 0.00 66 1003.5
20260902094604 13 144 1.6 1.6 0.00 0.00 0.00 65 1003.1
20260902094100 13 157 4.8 4.8 0.00 0.00 0.00 63 1003.3
20260902093600 13 148 6.4 9.7 0.00 0.00 0.00 63 1003.4
20260902093054 14 154 9.7 11.3 0.00 0.00 0.00 62 1003.5
20260902092549 15 161 4.8 4.8 0.00 0.00 0.00 61 1003.4
20260902092044 15 164 3.2 3.2 0.00 0.00 0.00 59 1003.4
20260902091534 15 160 6.4 8.0 0.00 0.00 0.00 59 1003.3
20260902091029 15 139 0.0 1.6 0.00 0.00 0.00 59 1003.2
20260902090520 15 121 4.8 4.8 0.00 0.00 0.00 59 1003.4
20260902090019 15 142 3.2 3.2 0.00 0.00 0.00 59 1003.4
20260902085519 15 149 3.2 3.2 0.00 0.00 0.00 60 1003.3
20260902085014 15 138 1.6 1.6 0.00 0.00 0.00 59 1003.3
20260902084510 15 132 0.0 1.6 0.00 0.00 0.00 59 1003.6
20260902084005 15 139 0.0 1.6 0.00 0.00 0.00 58 1003.6
20260902083501 15 149 3.2 3.2 0.00 0.00 0.00 58 1003.7
20260902082955 15 137 1.6 1.6 0.00 0.00 0.00 59 1003.7
20260902082451 15 136 1.6 1.6 0.00 0.00 0.00 57 1003.7
20260902081947 14 154 1.6 3.2 0.00 0.00 0.00 59 1003.6
20260902081444 13 134 0.0 1.6 0.00 0.00 0.00 61 1003.5
20260902080938 14 133 0.0 0.0 0.00 0.00 0.00 61 1003.6
20260902080434 14 140 0.0 0.0 0.00 0.00 0.00 61 1003.7
20260902075933 14 137 1.6 1.6 0.00 0.00 0.00 61 1003.7
20260902075430 14 156 3.2 3.2 0.00 0.00 0.00 59 1003.9
20260902074925 15 139 1.6 3.2 0.00 0.00 0.00 60 1003.7
20260902074420 15 149 1.6 1.6 0.00 0.00 0.00 59 1003.7
20260902073915 15 172 3.2 3.2 0.00 0.00 0.00 59 1003.6
20260902073411 15 163 3.2 3.2 0.00 0.00 0.00 56 1003.7
20260902072907 15 173 4.8 4.8 0.00 0.00 0.00 55 1003.6
20260902072403 16 155 3.2 3.2 0.00 0.00 0.00 55 1003.6
20260902071859 16 135 3.2 3.2 0.00 0.00 0.00 53 1003.6
20260902071358 16 161 4.8 4.8 0.00 0.00 0.00 53 1003.5
20260902070855 16 150 1.6 1.6 0.00 0.00 0.00 53 1003.7
20260902070350 17 132 3.2 4.8 0.00 0.00 0.00 52 1003.4
20260902065848 17 123 1.6 1.6 0.00 0.00 0.00 50 1003.7
20260902065344 16 121 3.2 3.2 0.00 0.00 0.00 52 1003.5
20260902064839 17 124 6.4 8.0 0.00 0.00 0.00 52 1003.5
20260902064335 17 130 4.8 4.8 0.00 0.00 0.00 50 1003.4
20260902063831 17 131 8.0 9.7 0.00 0.00 0.00 49 1003.6
20260902063331 17 108 9.7 11.3 0.00 0.00 0.00 48 1003.4
20260902062825 18 115 9.7 11.3 0.00 0.00 0.00 48 1003.7
20260902062320 18 133 9.7 12.9 0.00 0.00 0.00 48 1003.6
20260902061819 18 118 8.0 11.3 0.00 0.00 0.00 48 1003.6
20260902061315 18 121 6.4 8.0 0.00 0.00 0.00 48 1003.7
20260902060811 18 105 8.0 11.3 0.00 0.00 0.00 48 1003.7
20260902060307 18 118 8.0 11.3 0.00 0.00 0.00 48 1003.9
20260902055802 18 108 8.0 9.7 0.00 0.00 0.00 48 1003.7
20260902055259 18 115 8.0 9.7 0.00 0.00 0.00 48 1003.9
20260902054758 18 130 6.4 8.0 0.00 0.00 0.00 48 1004.0
20260902054254 18 98 6.4 8.0 0.00 0.00 0.00 48 1003.7
20260902053749 18 99 8.0 9.7 0.00 0.00 0.00 48 1004.0
20260902053249 18 112 4.8 4.8 0.00 0.00 0.00 48 1004.0
20260902052748 18 120 4.8 4.8 0.00 0.00 0.00 48 1004.0
20260902052244 18 112 8.0 9.7 0.00 0.00 0.00 47 1004.1
20260902051744 18 127 6.4 8.0 0.00 0.00 0.00 47 1003.7
20260902051238 19 119 6.4 8.0 0.00 0.00 0.00 46 1004.1
20260902050733 19 127 8.0 11.3 0.00 0.00 0.00 46 1003.9
20260902050228 19 124 11.3 11.3 0.00 0.00 0.00 46 1004.3
20260902045728 19 129 9.7 9.7 0.00 0.00 0.00 45 1004.0
20260902045224 19 133 8.0 9.7 0.00 0.00 0.00 45 1004.0
20260902044720 20 125 6.4 8.0 0.00 0.00 0.00 45 1003.7
20260902044215 20 114 8.0 9.7 0.00 0.00 0.00 45 1004.3
20260902043715 20 109 8.0 9.7 0.00 0.00 0.00 45 1004.0
20260902043211 20 114 11.3 14.5 0.00 0.00 0.00 43 1004.0
20260902042710 20 100 14.5 14.5 0.00 0.00 0.00 43 1004.1
20260902042205 20 117 14.5 14.5 0.00 0.00 0.00 43 1004.0
20260902041701 20 105 9.7 12.9 0.00 0.00 0.00 44 1004.0
20260902041155 20 98 9.7 11.3 0.00 0.00 0.00 43 1004.2
20260902040654 20 112 8.0 9.7 0.00 0.00 0.00 44 1003.9
20260902040150 20 116 9.7 11.3 0.00 0.00 0.00 43 1004.1
20260902035648 20 109 8.0 11.3 0.00 0.00 0.00 43 1004.0
20260902035144 20 115 11.3 11.3 0.00 0.00 0.00 42 1004.1
20260902034643 20 120 9.7 11.3 0.00 0.00 0.00 42 1004.1
20260902034143 20 107 6.4 8.0 0.00 0.00 0.00 43 1004.2
20260902033642 20 115 11.3 12.9 0.00 0.00 0.00 42 1004.2
20260902033137 20 127 8.0 9.7 0.00 0.00 0.00 43 1004.4
20260902032636 21 124 8.0 9.7 0.00 0.00 0.00 42 1004.3
20260902032136 21 97 11.3 12.9 0.00 0.00 0.00 41 1004.4
20260902031630 21 120 8.0 9.7 0.00 0.00 0.00 40 1004.2
20260902031126 21 111 11.3 12.9 0.00 0.00 0.00 39 1004.2
20260902030621 21 118 11.3 12.9 0.00 0.00 0.00 39 1004.2
20260902030121 21 112 11.3 11.3 0.00 0.00 0.00 39 1004.2
20260902025620 21 112 8.0 9.7 0.00 0.00 0.00 39 1004.0
20260902025116 21 113 9.7 12.9 0.00 0.00 0.00 38 1004.0
20260902024611 21 129 9.7 11.3 0.00 0.00 0.00 38 1004.2
20260902024106 21 102 9.7 11.3 0.00 0.00 0.00 38 1004.0
20260902023602 22 114 9.7 11.3 0.00 0.00 0.00 36 1004.0
20260902023056 22 110 12.9 14.5 0.00 0.00 0.00 35 1004.0
20260902022556 22 108 14.5 14.5 0.00 0.00 0.00 35 1004.2
20260902022052 22 103 14.5 16.1 0.00 0.00 0.00 35 1004.2
20260902021547 22 116 8.0 9.7 0.00 0.00 0.00 36 1004.2
20260902021042 23 126 6.4 8.0 0.00 0.00 0.00 35 1004.0
20260902020538 23 112 6.4 8.0 0.00 0.00 0.00 34 1004.1
20260902020034 24 113 6.4 8.0 0.00 0.00 0.00 33 1004.3
20260902015529 24 105 6.4 8.0 0.00 0.00 0.00 32 1003.7
20260902015025 25 112 8.0 9.7 0.00 0.00 0.00 32 1004.0
20260902014521 24 125 4.8 4.8 0.00 0.00 0.00 33 1004.1
20260902014016 24 126 3.2 3.2 0.00 0.00 0.00 35 1004.0
20260902013511 25 140 1.6 1.6 0.00 0.00 0.00 35 1003.9
20260902013006 25 141 0.0 0.0 0.00 0.00 0.00 33 1003.9
20260902012501 26 141 0.0 0.0 0.00 0.00 0.00 33 1004.0
20260902011957 26 143 1.6 1.6 0.00 0.00 0.00 32 1004.0
20260902011452 26 147 3.2 3.2 0.00 0.00 0.00 31 1004.0
20260902010951 26 147 4.8 4.8 0.00 0.00 0.00 30 1004.1
20260902010447 26 160 4.8 4.8 0.00 0.00 0.00 30 1004.2
20260902005946 27 141 4.8 4.8 0.00 0.00 0.00 29 1004.2
20260902005445 27 207 8.0 11.3 0.00 0.00 0.00 26 1003.9
20260902004942 27 159 6.4 8.0 0.00 0.00 0.00 27 1003.9
20260902004441 27 168 6.4 8.0 0.00 0.00 0.00 25 1003.9
20260902003936 27 172 8.0 9.7 0.00 0.00 0.00 26 1004.2
20260902003436 27 137 4.8 4.8 0.00 0.00 0.00 27 1004.2
20260902002932 27 135 6.4 8.0 0.00 0.00 0.00 26 1004.4
20260902002427 27 140 8.0 9.7 0.00 0.00 0.00 26 1004.3
20260902001926 27 160 4.8 8.0 0.00 0.00 0.00 25 1004.4
20260902001421 27 191 6.4 9.7 0.00 0.00 0.00 25 1004.0
20260902000916 27 139 8.0 9.7 0.00 0.00 0.00 26 1004.1
20260902000414 27 145 4.8 4.8 0.00 0.00 0.00 25 1004.2
20260901235906 27 184 6.4 8.0 0.00 0.00 0.00 27 1004.4
20260901235401 27 182 14.5 16.1 0.00 0.00 0.00 26 1004.3
20260901234856 28 172 9.7 11.3 0.00 0.00 0.00 28 1004.3
20260901234350 27 126 4.8 4.8 0.00 0.00 0.00 28 1004.3
20260901233845 27 158 9.7 11.3 0.00 0.00 0.00 26 1004.3
20260901233341 27 152 9.7 11.3 0.00 0.00 0.00 27 1004.5
20260901232836 28 143 6.4 8.0 0.00 0.00 0.00 27 1004.3
20260901232331 27 158 4.8 4.8 0.00 0.00 0.00 28 1004.5
20260901231827 28 159 9.7 11.3 0.00 0.00 0.00 27 1004.4
20260901231323 28 166 8.0 9.7 0.00 0.00 0.00 27 1004.6
20260901230820 27 78 4.8 4.8 0.00 0.00 0.00 27 1004.7
20260901230319 28 133 12.9 14.5 0.00 0.00 0.00 27 1004.7
20260901225815 27 110 8.0 9.7 0.00 0.00 0.00 27 1004.6
20260901225314 27 103 14.5 14.5 0.00 0.00 0.00 27 1004.7
20260901224809 28 132 9.7 14.5 0.00 0.00 0.00 28 1004.9
20260901224306 28 148 4.8 4.8 0.00 0.00 0.00 27 1004.7
20260901223801 28 162 11.3 14.5 0.00 0.00 0.00 27 1004.9
20260901223256 28 175 9.7 11.3 0.00 0.00 0.00 27 1004.8
20260901222752 27 151 8.0 9.7 0.00 0.00 0.00 28 1004.9
20260901222248 27 138 9.7 11.3 0.00 0.00 0.00 27 1004.8
20260901221744 28 160 9.7 12.9 0.00 0.00 0.00 28 1005.1
20260901221239 28 168 11.3 11.3 0.00 0.00 0.00 27 1005.2
20260901220738 28 127 4.8 4.8 0.00 0.00 0.00 28 1005.3
20260901220232 29 99 3.2 3.2 0.00 0.00 0.00 27 1005.3
20260901215731 29 158 3.2 3.2 0.00 0.00 0.00 26 1005.3
20260901215232 28 208 4.8 4.8 0.00 0.00 0.00 27 1005.4
20260901214730 28 110 3.2 3.2 0.00 0.00 0.00 27 1005.6
20260901214224 27 136 0.0 0.0 0.00 0.00 0.00 30 1005.4
20260901213724 27 149 3.2 3.2 0.00 0.00 0.00 29 1005.6
20260901213224 27 158 9.7 12.9 0.00 0.00 0.00 29 1005.7
20260901212723 28 127 3.2 3.2 0.00 0.00 0.00 28 1005.9
20260901212220 27 163 1.6 1.6 0.00 0.00 0.00 27 1005.8
20260901211720 26 155 1.6 3.2 0.00 0.00 0.00 30 1005.8
20260901211216 26 216 4.8 4.8 0.00 0.00 0.00 30 1005.9
20260901210712 27 136 4.8 4.8 0.00 0.00 0.00 29 1006.1
20260901210207 27 203 4.8 4.8 0.00 0.00 0.00 29 1006.3
20260901205703 26 186 9.7 11.3 0.00 0.00 0.00 30 1006.0
20260901205157 26 196 6.4 8.0 0.00 0.00 0.00 31 1006.4
20260901204653 26 188 4.8 4.8 0.00 0.00 0.00 30 1006.4
20260901204149 26 168 0.0 1.6 0.00 0.00 0.00 32 1006.4
20260901203649 26 179 4.8 4.8 0.00 0.00 0.00 30 1006.3
20260901203144 26 189 8.0 9.7 0.00 0.00 0.00 29 1006.4
20260901202643 26 185 4.8 4.8 0.00 0.00 0.00 30 1006.5
20260901202139 26 165 8.0 11.3 0.00 0.00 0.00 29 1006.4
20260901201635 26 129 6.4 8.0 0.00 0.00 0.00 29 1006.5
20260901201134 25 157 12.9 16.1 0.00 0.00 0.00 30 1006.6
20260901200634 25 201 8.0 9.7 0.00 0.00 0.00 31 1006.6
20260901200129 26 132 6.4 8.0 0.00 0.00 0.00 29 1006.6
20260901195627 26 169 16.1 17.7 0.00 0.00 0.00 31 1006.5
20260901195127 25 127 11.3 12.9 0.00 0.00 0.00 31 1006.7
20260901194622 25 223 14.5 22.5 0.00 0.00 0.00 31 1006.6
20260901194117 25 168 11.3 12.9 0.00 0.00 0.00 31 1007.1
20260901193613 25 156 11.3 14.5 0.00 0.00 0.00 31 1006.9
20260901193107 25 116 12.9 16.1 0.00 0.00 0.00 32 1006.7
20260901192602 25 161 12.9 16.1 0.00 0.00 0.00 34 1006.9
20260901192057 25 181 8.0 14.5 0.00 0.00 0.00 33 1007.0
20260901191553 25 164 11.3 12.9 0.00 0.00 0.00 35 1007.0
20260901191050 25 139 12.9 17.7 0.00 0.00 0.00 34 1007.2
20260901190545 24 184 11.3 14.5 0.00 0.00 0.00 34 1007.3
20260901190043 24 137 9.7 14.5 0.00 0.00 0.00 34 1007.2
20260901185537 24 114 16.1 22.5 0.00 0.00 0.00 34 1007.5
20260901185036 24 121 12.9 14.5 0.00 0.00 0.00 34 1007.5
20260901184531 24 137 11.3 12.9 0.00 0.00 0.00 33 1007.5
20260901184026 24 113 16.1 17.7 0.00 0.00 0.00 35 1007.6
20260901183521 23 151 12.9 17.7 0.00 0.00 0.00 36 1007.5
20260901183016 23 129 14.5 16.1 0.00 0.00 0.00 36 1007.8
20260901182512 23 147 8.0 11.3 0.00 0.00 0.00 37 1007.8
20260901182007 23 122 12.9 14.5 0.00 0.00 0.00 37 1007.9
20260901181507 23 130 12.9 16.1 0.00 0.00 0.00 37 1007.9
20260901181006 23 130 17.7 22.5 0.00 0.00 0.00 37 1008.0
20260901180505 22 130 12.9 14.5 0.00 0.00 0.00 39 1007.8
20260901180004 22 158 14.5 17.7 0.00 0.00 0.00 39 1008.1
20260901175459 22 99 16.1 17.7 0.00 0.00 0.00 38 1007.9
20260901174953 22 114 11.3 14.5 0.00 0.00 0.00 39 1008.3
20260901174449 22 166 12.9 16.1 0.00 0.00 0.00 39 1008.2
20260901173945 22 175 14.5 20.9 0.00 0.00 0.00 39 1008.2
20260901173440 22 114 14.5 16.1 0.00 0.00 0.00 39 1008.3
20260901172936 22 102 19.3 25.7 0.00 0.00 0.00 38 1008.3
20260901172431 22 161 16.1 20.9 0.00 0.00 0.00 39 1008.4
20260901171929 21 117 16.1 20.9 0.00 0.00 0.00 41 1008.4
20260901171427 21 184 17.7 22.5 0.00 0.00 0.00 40 1008.4
20260901170926 21 135 22.5 27.4 0.00 0.00 0.00 40 1008.3
20260901170422 21 165 17.7 20.9 0.00 0.00 0.00 41 1008.6
20260901165915 21 139 9.7 16.1 0.00 0.00 0.00 42 1008.6
20260901165410 21 169 16.1 17.7 0.00 0.00 0.00 42 1008.6
20260901164906 21 150 22.5 24.1 0.00 0.00 0.00 42 1008.2